TimeCDT,TemperatureF,Dew PointF,Humidity,Sea Level PressureIn,VisibilityMPH,Wind Direction,Wind SpeedMPH,Gust SpeedMPH,PrecipitationIn,Events,Conditions,WindDirDegrees,DateUTC
12:56 AM,54.9,50.9,86,29.95,10.0,South,6.9,-,N/A,,Clear,190,2012-10-03 05:56:00
1:56 AM,55.9,52.0,87,29.95,10.0,South,6.9,-,0.00,,Clear,190,2012-10-03 06:56:00
2:56 AM,56.8,52.9,87,29.96,10.0,South,6.9,-,0.00,,Clear,180,2012-10-03 07:56:00
3:56 AM,56.8,52.9,87,29.96,10.0,South,6.9,-,N/A,,Clear,180,2012-10-03 08:56:00
4:56 AM,54.9,52.9,93,29.97,10.0,SE,8.1,-,N/A,,Clear,130,2012-10-03 09:56:00
5:56 AM,54.9,52.0,90,30.00,10.0,SE,3.5,-,N/A,,Clear,140,2012-10-03 10:56:00
6:56 AM,54.0,52.0,93,30.01,10.0,SSE,5.8,-,N/A,,Clear,150,2012-10-03 11:56:00
7:56 AM,55.9,54.9,96,30.02,10.0,SE,6.9,-,N/A,,Clear,140,2012-10-03 12:56:00
8:56 AM,61.9,54.9,78,30.04,10.0,SSW,6.9,-,N/A,,Scattered Clouds,200,2012-10-03 13:56:00
10:56 AM,72.9,55.9,55,30.05,10.0,SW,13.8,-,N/A,,Clear,220,2012-10-03 15:56:00
11:56 AM,77.0,54.9,46,30.05,10.0,SW,13.8,-,N/A,,Clear,230,2012-10-03 16:56:00
12:56 PM,79.0,55.9,45,30.04,10.0,SW,15.0,18.4,N/A,,Partly Cloudy,230,2012-10-03 17:56:00
1:56 PM,77.9,55.9,47,30.02,10.0,SSW,13.8,-,N/A,,Clear,210,2012-10-03 18:56:00
2:56 PM,77.9,54.9,45,30.01,10.0,SSW,15.0,21.9,N/A,,Clear,200,2012-10-03 19:56:00
3:56 PM,75.9,54.0,46,30.02,10.0,SSW,11.5,-,N/A,,Clear,210,2012-10-03 20:56:00
4:56 PM,75.9,55.9,50,30.02,10.0,SSW,8.1,-,N/A,,Clear,200,2012-10-03 21:56:00
5:56 PM,74.8,54.0,48,30.03,10.0,South,11.5,-,N/A,,Clear,180,2012-10-03 22:56:00
6:56 PM,66.9,55.9,68,30.04,10.0,SE,6.9,-,N/A,,Clear,130,2012-10-03 23:56:00
7:56 PM,63.0,55.9,78,30.06,10.0,South,6.9,-,N/A,,Clear,180,2012-10-04 00:56:00
8:56 PM,61.9,55.9,81,30.09,10.0,South,6.9,-,N/A,,Clear,190,2012-10-04 01:56:00
9:56 PM,61.9,54.9,78,30.10,10.0,South,4.6,-,N/A,,Clear,190,2012-10-04 02:56:00
10:56 PM,59.0,54.9,86,30.11,10.0,SSW,8.1,-,N/A,,Clear,200,2012-10-04 03:56:00
11:56 PM,57.9,54.0,87,30.12,10.0,South,6.9,-,N/A,,Clear,190,2012-10-04 04:56:00